Home > Time Zones > World Clock > Weather > Italy > Monza > Past weeks

Flag for Italy Weather past 2 weeks in Monza, Italy

Now
57 °F

Sunny.


Feels Like: 57 °F
Forecast: 57 / 76 °F
Wind: 1 mph from North

Location: Milan / Linate

Current Time: May 24, 2015 at 7:57:44 AM

Latest Report: May 24, 2015 at 7:20 AM


Visibility: 10 mi

Pressure: 29.98 "Hg

Humidity: 94%

Dew point: 55 °F

Location of MonzaLocation

Historic Weather in Monza — Graph

°F

Monza temperature yesterday

Maximum temperature yesterday: 70 °F (at 1:20 PM)
Minimum temperature yesterday: 55 °F (at 5:50 AM)
Average temperature yesterday: 60 °F

Past Weeks' High & Low Weather Summary

 TemperatureHumidityPressure
High84 °F (May 14, 3:50 PM)100% (May 9, 6:20 AM)30.30 "Hg (May 9, 6:20 AM)
Low50 °F (May 21, 5:50 AM)24% (May 9, 8:20 PM)29.56 "Hg (May 15, 12:20 PM)
Average67 °F66%29.96 "Hg
* Reported May 9 6:20 AM — May 24 6:20 AM, Monza, Weather by CustomWeather, © 2015

Note: Actual official high and low records may vary slightly from our data, if they occured in-between our weather recording intervals... More about our weather records

Advertising

Monza weather history for previous 24 hours

 ConditionsComfort  
Time TempWeatherWind HumidityBarometerVisibility
6:20 AM
Sun, May 24
54 °FFog.2 mph100%29.98 "HgN/A
5:50 AM52 °FFog.2 mph100%29.95 "HgN/A
5:20 AM50 °FPassing clouds.3 mph100%29.95 "HgN/A
4:50 AM54 °FClear.3 mph94%29.95 "Hg10 mi
4:20 AM54 °FClear.3 mph94%29.95 "Hg10 mi
3:50 AM55 °FPassing clouds.1 mph94%29.95 "HgN/A
3:20 AM55 °FPassing clouds.2 mph94%29.95 "HgN/A
2:50 AM55 °FPassing clouds.3 mph94%29.98 "HgN/A
2:20 AM55 °FPassing clouds.3 mph94%29.98 "HgN/A
1:50 AM55 °FPassing clouds.3 mph94%29.98 "HgN/A
1:20 AM57 °FPassing clouds.3 mph94%29.98 "HgN/A
12:50 AM55 °FPassing clouds.5 mph100%29.98 "HgN/A
12:20 AM55 °FLight rain. Passing clouds.5 mph94%29.98 "HgN/A
11:50 PM
Sat, May 23
55 °FLight rain. Passing clouds.5 mph100%29.98 "HgN/A
11:20 PM57 °FLight rain. Passing clouds.5 mph94%29.98 "HgN/A
10:50 PM55 °FLight rain. Passing clouds.6 mph100%29.98 "HgN/A
10:20 PM57 °FLight rain. Passing clouds.3 mph94%29.98 "HgN/A
9:50 PM57 °FLight rain. Partly sunny.6 mph94%29.98 "HgN/A
9:20 PM57 °FPartly sunny.6 mph88%29.95 "HgN/A
8:50 PM57 °FPartly sunny.6 mph88%29.92 "HgN/A
8:20 PM57 °FPartly sunny.7 mph88%29.92 "HgN/A
7:50 PM59 °FBroken clouds.7 mph82%29.92 "HgN/A
7:20 PM59 °FBroken clouds.9 mph82%29.92 "HgN/A
6:50 PM59 °FBroken clouds.8 mph82%29.92 "HgN/A
6:20 PM59 °FBroken clouds.10 mph77%29.89 "HgN/A
5:50 PM61 °FPartly sunny.10 mph77%29.89 "HgN/A
5:20 PM59 °FLight rain. Partly sunny.14 mph77%29.89 "HgN/A
4:50 PM61 °FLight rain. Partly sunny.14 mph72%29.89 "HgN/A
4:20 PM63 °FPartly sunny.16 mph68%29.89 "HgN/A
3:50 PM64 °FScattered clouds.14 mph64%29.86 "HgN/A
3:20 PM64 °FScattered clouds.15 mph64%29.86 "HgN/A
2:50 PM68 °FScattered clouds.13 mph60%29.86 "HgN/A
2:20 PM68 °FPassing clouds.10 mph53%29.86 "HgN/A
1:50 PM68 °FScattered clouds.9 mph53%29.86 "HgN/A
1:20 PM70 °FScattered clouds.5 mph50%29.86 "HgN/A
12:50 PM66 °FPassing clouds.6 mph56%29.86 "HgN/A
12:20 PM68 °FPassing clouds.6 mph53%29.86 "HgN/A
11:50 AM66 °FPassing clouds.5 mph60%29.86 "HgN/A
11:20 AM64 °FPassing clouds.3 mph64%29.86 "HgN/A
10:50 AM63 °FScattered clouds.6 mph64%29.86 "HgN/A
10:20 AM63 °FScattered clouds.6 mph68%29.86 "HgN/A
9:50 AM61 °FPartly sunny.6 mph77%29.86 "HgN/A
9:20 AM61 °FPartly sunny.3 mph72%29.86 "HgN/A
8:50 AM59 °FPartly sunny.2 mph82%29.86 "HgN/A
8:20 AM59 °FPartly sunny.2 mph82%29.86 "HgN/A
7:50 AM59 °FPartly sunny.2 mph82%29.86 "HgN/A
7:20 AM57 °FScattered clouds.1 mph88%29.86 "Hg5 mi
Weather by CustomWeather, © 2015

See weather overviewHow to use our weather pages